TimeEDT,TemperatureF,Dew PointF,Humidity,Sea Level PressureIn,VisibilityMPH,Wind Direction,Wind SpeedMPH,Gust SpeedMPH,PrecipitationIn,Events,Conditions,WindDirDegrees,DateUTC
12:56 AM,45.0,37.9,76,29.82,-9999.0,Variable,5.8,-,N/A,,Unknown,0,2012-10-07 04:56:00
1:56 AM,44.1,37.0,76,29.84,-9999.0,Variable,4.6,-,N/A,,Unknown,0,2012-10-07 05:56:00
2:56 AM,44.1,37.0,76,29.85,-9999.0,Variable,6.9,-,N/A,,Unknown,0,2012-10-07 06:56:00
3:56 AM,43.0,36.0,76,29.88,-9999.0,Variable,4.6,-,N/A,,Unknown,0,2012-10-07 07:56:00
4:56 AM,42.1,35.1,76,29.90,-9999.0,Variable,4.6,-,N/A,,Unknown,0,2012-10-07 08:56:00
5:56 AM,42.1,34.0,73,29.92,-9999.0,Calm,Calm,-,N/A,,Unknown,0,2012-10-07 09:56:00
6:56 AM,43.0,34.0,71,29.95,-9999.0,Variable,5.8,-,N/A,,Unknown,0,2012-10-07 10:56:00
7:56 AM,44.1,35.1,71,29.97,-9999.0,Variable,4.6,-,N/A,,Unknown,0,2012-10-07 11:56:00
8:56 AM,45.0,35.1,68,29.98,-9999.0,Variable,6.9,-,N/A,,Unknown,0,2012-10-07 12:56:00
9:56 AM,46.9,34.0,61,30.00,-9999.0,Variable,4.6,-,N/A,,Unknown,0,2012-10-07 13:56:00
10:56 AM,46.9,34.0,61,30.00,-9999.0,Variable,5.8,-,N/A,,Unknown,0,2012-10-07 14:56:00
11:56 AM,46.9,33.1,59,30.01,-9999.0,Calm,Calm,-,N/A,,Unknown,0,2012-10-07 15:56:00
12:56 PM,48.0,34.0,58,30.00,-9999.0,Variable,3.5,-,N/A,,Unknown,0,2012-10-07 16:56:00
1:56 PM,48.0,33.1,56,30.01,-9999.0,Calm,Calm,-,N/A,,Unknown,0,2012-10-07 17:56:00
2:56 PM,48.9,35.1,59,30.01,-9999.0,Variable,3.5,-,N/A,,Unknown,0,2012-10-07 18:56:00
3:56 PM,48.9,34.0,56,30.00,-9999.0,Variable,3.5,-,N/A,,Unknown,0,2012-10-07 19:56:00
4:56 PM,48.0,34.0,58,30.00,-9999.0,Calm,Calm,-,N/A,,Unknown,0,2012-10-07 20:56:00
5:56 PM,46.9,37.0,68,30.01,-9999.0,Calm,Calm,-,N/A,,Unknown,0,2012-10-07 21:56:00
6:56 PM,46.0,37.9,73,30.02,-9999.0,Calm,Calm,-,N/A,,Unknown,0,2012-10-07 22:56:00
7:56 PM,45.0,37.0,74,30.01,-9999.0,NNW,8.1,-,N/A,,Unknown,330,2012-10-07 23:56:00
8:56 PM,43.0,37.0,80,30.01,-9999.0,NNW,6.9,-,N/A,,Unknown,340,2012-10-08 00:56:00
9:56 PM,43.0,37.0,80,30.01,-9999.0,North,4.6,-,N/A,,Unknown,350,2012-10-08 01:56:00
10:56 PM,43.0,37.9,82,30.02,-9999.0,North,4.6,-,N/A,,Unknown,360,2012-10-08 02:56:00
11:56 PM,42.1,39.9,92,30.02,-9999.0,Calm,Calm,-,N/A,,Unknown,0,2012-10-08 03:56:00